Terminal Aerodrome Forecast
Issued by NWS Goodland, KS

Home | Current Version | Previous Version | Text Only | Print | Product List | Glossary On
Versions: 1 2 3 4 5 6 7 8 9 10 11 12 13 14 15
000
FTUS43 KGLD 291750
TAFGLD
TAF
KGLD 291750Z 2918/3018 VRB05KT P6SM FEW150
     FM300300 15005KT P6SM FEW100
     FM301100 23009KT P6SM FEW200=

USA.gov is the U.S. government's official web portal to all federal, state and local government web resources and services.